Regional Weather Roundup
Issued by NWS Sioux Falls, SD

Home | Current Version | Previous Version | Text Only | Print | Product List | Glossary On
Versions: 1 2 3 4 5 6 7 8 9 10 11 12 13 14 15 16 17 18 19 20 21 22 23 24 25 26 27 28 29 30 31 32 33 34 35 36 37 38 39 40 41 42 43 44 45 46 47 48 49 50
000
ASUS43 KFSD 021910
RWRFSD

WEATHER ROUNDUP FOR SE SOUTH DAKOTA/SW MINNESOTA/NW IOWA
NATIONAL WEATHER SERVICE SIOUX FALLS SD
200 PM CDT MON MAY 02 2016

NOTE: "FAIR" INDICATES FEW OR NO CLOUDS BELOW 12,000 FEET WITH NO
SIGNIFICANT WEATHER AND OR OBSTRUCTIONS TO VISIBILITY.


SDZ038>040-050-052>070-022000-
SOUTHEAST SOUTH DAKOTA

CITY           SKY/WX    TMP DP  RH WIND       PRES   REMARKS
BROOKINGS      SUNNY     62  32  32 S5        30.04F
CHAMBERLAIN    PTSUNNY   64  44  47 SW12G18   30.04F
HURON          MOSUNNY   64  37  36 S10       30.02F
MADISON        FAIR      59  32  36 S3        30.06F
MITCHELL       MOSUNNY   62  37  39 SW8       30.06F
SIOUX FALLS    PTSUNNY   61  36  39 VRB7      30.06F
WINNER         FAIR      65  39  38 W8        30.05F
YANKTON        CLOUDY    61  36  39 NW3       30.08F
$$

MNZ071-072-080-081-089-090-097-098-022000-
SOUTHWEST MINNESOTA

CITY           SKY/WX    TMP DP  RH WIND       PRES   REMARKS
FAIRMONT       PTSUNNY   61  25  25 CALM      30.08S
JACKSON        MOSUNNY   59  32  36 CALM      30.08F
LUVERNE        MOSUNNY   61  30  31 CALM      30.07F
MARSHALL       PTSUNNY   64  33  31 NE3       30.05F
MONTEVIDEO     SUNNY     68  32  26 NE6       30.06F
PIPESTONE      SUNNY     63  34  34 W6        30.06F
REDWOOD FALLS  SUNNY     64  29  26 CALM      30.05F
TRACY          MOSUNNY   64  34  33 SW5       30.05F
WINDOM         MOSUNNY   63  32  31 CALM      30.06F
WORTHINGTON    CLOUDY    59  33  37 VRB3      30.07F
$$

IAZ001>003-012>014-020>022-031-032-NEZ013-014-SDZ071-022000-
NORTHWEST IOWA

CITY           SKY/WX    TMP DP  RH WIND       PRES   REMARKS
CHEROKEE       PTSUNNY   60  37  43 NW6       30.08F
DENISON        PTSUNNY   59  41  51 NW5       30.07F
ESTHERVILLE    MOSUNNY   60  36  40 CALM      30.07F
LE MARS        CLOUDY    61  36  39 N7        30.09F
ORANGE CITY    PTSUNNY   61  37  41 CALM      30.08F
SHELDON        MOSUNNY   61  36  39 CALM      30.06F
SIOUX CITY     SUNNY     65  35  33 CALM      30.09F
SPENCER        PTSUNNY   61  33  35 CALM      30.08F
STORM LAKE       N/A     57  36  44 NW3       30.09F
$$

ABBREVIATIONS USED IN REMARKS
   TC - TEMPERATURE IN CELSIUS
  WCI - WIND CHILL INDEX
   HX - HEAT INDEX
  VSB - VISIBILITY





USA.gov is the U.S. government's official web portal to all federal, state and local government web resources and services.